TOURFACTS.DK  
Stats and Facts from Tour de France.

Tour de France 2019 starts in 348 days
  Riders   Stages   Teams   Summits   Yearly  


 
Search by year

After 2018 - Stage 14:
 15000 starters.
  5163 different riders.
  639 teams.
  2246 stages.
  456 restdays.
  441957.60 km.
  5678 abandonnees.


Top 3
GC
Christopher Froome86:20:55
Rigoberto Urán86:21:49
Romain Bardet86:23:15
Climb
Warren Barguil169 pt.
Primoz Roglic80 pt.
Thomas De Gendt64 pt.
Sprint
Michael Matthews359 pt.
André Greipel234 pt.
Edvald Boasson Hagen220 pt.
Youth
Simon Yates86:27:09
Louis Meintjes86:29:15
Emanuel Buchmann86:54:16
Facts from Tour de France 1935
  |   Stages.  |   Stage winners.  |   Days in yellow  |   Average speed.  |   Route.  |   Teams.  |   All riders.  |   Rookies.  |  

  |   Withdrawls.  |   GC.  |   Polka  |   Green  |   White  |   Summits. (In tour)  |   Miscellaneous.  |  

Stage 2 on July 5th. 1935
         Owning:    Romain Maes    
Pick a stage:  1 2 3 4 5a 5b 6 7 8 9 10 11 12 13a 13b 14a 14b 15 16 17 18a 18b 19a 19b 20a 20b 21
From: Lille    To: CharlevilleDist:192.00 km.

Average speed for all riders in stage:  33,271 km./hr.
    Place:Name:Team:Time:Km/h:
FRACharles PelissierFRAFrance B05:32:18  +  00:00:00=34,667 
FRAGeorges SpeicherFRAFrance05:32:18  +  00:00:00=34,667 
ITAVasco BergamaschiITAItaly05:32:18  +  00:00:00=34,667 
4 FRAGustave DanneelsBELBelgium05:32:18  +  00:00:00=34,667 
5 BELEdgard De CaluweBELBelgium05:32:18  +  00:00:00=34,667 
6 FRARené DebenneFRAFrance05:32:18  +  00:00:00=34,667 
7 FRAJules MervielFRAFrance05:32:18  +  00:00:00=34,667 
8 ITARemo BertoniITAItaly05:32:18  +  00:00:00=34,667 
9 ITAFrancesco CamussoITAItaly05:32:18  +  00:00:00=34,667 
10 BELSylvère MaesBELBelgium B05:32:18  +  00:00:00=34,667 
11 BELAntoine DignefBELBelgium B05:32:18  +  00:00:00=34,667 
12 BELJules LowieBELBelgium B05:32:18  +  00:00:00=34,667 
13 FRARené ViettoFRAFrance05:32:18  +  00:00:00=34,667 
14 FRAJulien MoineauFRAFrance B05:32:18  +  00:00:00=34,667 
15 FRAAntonin MagneFRAFrance05:32:18  +  00:00:00=34,667 
16 ITAEugenio GestriITACadetti Italiens05:32:18  +  00:00:00=34,667 
17 FRARené BernardTouristes Routiers05:32:18  +  00:00:00=34,667 
18 ESPVicente TruebaESPSpain05:32:18  +  00:00:00=34,667 
19 BELHenri GarnierBELBelgium05:32:18  +  00:00:00=34,667 
20 BELRomain MaesBELBelgium05:32:18  +  00:00:00=34,667 
21 ITAAmbrogio MorelliITACadetti Italiens05:33:56  +  00:01:38=34,498 
22 FRARené Le GrevesFRAFrance05:34:23  +  00:02:05=34,451 
23 ESPThéodore LadronTouristes Routiers05:34:23  +  00:02:05=34,451 
24 GERAnton HodeyDEUGermany05:34:23  +  00:02:05=34,451 
25 FRAPierre-Marie CloarecTouristes Routiers05:34:23  +  00:02:05=34,451 
26 ESPSalvador CardonaESPSpain05:34:23  +  00:02:05=34,451 
27 GERBruno RothDEUGermany B05:34:23  +  00:02:05=34,451 
28 BELFélicien VervaeckeBELBelgium05:34:23  +  00:02:05=34,451 
29 ESPVicente BacheroESPSpain B05:39:37  +  00:07:19=33,921 
30 FRABenoit FaureTouristes Routiers05:39:37  +  00:07:19=33,921 
31 FRAGabriel RuozziTouristes Routiers05:39:37  +  00:07:19=33,921 
32 ESPAntonio PriorESPSpain05:39:37  +  00:07:19=33,921 
33 FRAFernand FayolleTouristes Routiers05:39:37  +  00:07:19=33,921 
34 ITARené-Paul CoralliniTouristes Routiers05:39:37  +  00:07:19=33,921 
35 GERKurt StöpelDEUGermany05:39:37  +  00:07:19=33,921 
36 GEROskar ThierbachDEUGermany05:39:37  +  00:07:19=33,921 
37 GERGeorge HaendelDEUGermany B05:39:37  +  00:07:19=33,921 
38 FRAJean FontenayFRAFrance B05:39:37  +  00:07:19=33,921 
39 FRAPierre CoganTouristes Routiers05:39:37  +  00:07:19=33,921 
40 FRALouis ThiétardTouristes Routiers05:42:15  +  00:09:57=33,660 
41 FRAAndré LeducqFRAFrance05:42:40  +  00:10:22=33,619 
42 GEROtto WeckerlingDEUGermany05:42:40  +  00:10:22=33,619 
43 ESPEmiliano AlvarezESPSpain05:42:40  +  00:10:22=33,619 
44 GEREmil KijewskiDEUGermany05:42:40  +  00:10:22=33,619 
45 SUILéo AmbergCHESwitzerland05:42:40  +  00:10:22=33,619 
46 GERFerdinand IckesDEUGermany B05:42:40  +  00:10:22=33,619 
47 BELFrançois NeuvilleBELBelgium B05:42:40  +  00:10:22=33,619 
48 FRAJoseph MauclairTouristes Routiers05:42:40  +  00:10:22=33,619 
49 ITAAldo BertoccoTouristes Routiers05:42:40  +  00:10:22=33,619 
50 FRAClément BistagneTouristes Routiers05:42:40  +  00:10:22=33,619 
51 ITAOreste BernardoniTouristes Routiers05:50:26  +  00:18:08=32,874 
52 ESPDemetrio VicenteESPSpain B05:50:26  +  00:18:08=32,874 
53 FRAHonore GranierTouristes Routiers05:50:26  +  00:18:08=32,874 
54 ITAOrlando TeaniITACadetti Italiens05:52:57  +  00:20:39=32,639 
55 FRASezny Le RouxTouristes Routiers05:53:08  +  00:20:50=32,622 
56 ESPFrancisco CepedaESPSpain B05:53:08  +  00:20:50=32,622 
57 GERGeorg UmbenhauerDEUGermany05:53:15  +  00:20:57=32,611 
58 GERKarl HeideDEUGermany05:53:15  +  00:20:57=32,611 
59 GERWilly KutschbachDEUGermany05:53:15  +  00:20:57=32,611 
60 GERGeorg StachDEUGermany B05:53:15  +  00:20:57=32,611 
61 ITADante GianelloTouristes Routiers05:53:15  +  00:20:57=32,611 
62 SUIFritz HartmannCHESwitzerland05:53:15  +  00:20:57=32,611 
63 ESPManuel GarciaTouristes Routiers05:53:15  +  00:20:57=32,611 
64 SUIKurt StettlerCHESwitzerland05:53:15  +  00:20:57=32,611 
65 FRAGeorges LachatTouristes Routiers05:53:15  +  00:20:57=32,611 
66 FRAGeorges HubatzTouristes Routiers06:00:23  +  00:28:05=31,966 
67 ESPIsidro FiguerasESPSpain06:00:23  +  00:28:05=31,966 
68 FRAPaul ChocqueTouristes Routiers06:00:23  +  00:28:05=31,966 
69 ESPMariano CañardoESPSpain06:00:23  +  00:28:05=31,966 
70 BELLouis HardiquestBELBelgium06:00:23  +  00:28:05=31,966 
71 BELJean AertsBELBelgium06:00:23  +  00:28:05=31,966 
72 ESPFederico EzquerraESPSpain06:00:23  +  00:28:05=31,966 
73 FRALouis HalbourgTouristes Routiers06:00:23  +  00:28:05=31,966 
74 FRARobert RenonceTouristes Routiers06:07:27  +  00:35:09=31,351 
75 LUXJosy KrausTouristes Routiers06:07:27  +  00:35:09=31,351 
76 ITAPietro RimoldiITACadetti Italiens06:07:27  +  00:35:09=31,351 
77 ITAAdriano VignoliITAItaly06:07:27  +  00:35:09=31,351 
78 ITALuigi GiacobbeITAItaly06:07:27  +  00:35:09=31,351 
79 FRAMaurice ArchambaudFRAFrance06:07:27  +  00:35:09=31,351 
80 FRARoger LapebieFRAFrance B06:07:27  +  00:35:09=31,351 
81 FRAJean PhilipTouristes Routiers06:07:27  +  00:35:09=31,351 
82 FRAMaurice PomarèdeTouristes Routiers06:11:34  +  00:39:16=31,004 
83 ITARafaële Di PacoITAItaly06:11:34  +  00:39:16=31,004 
84 FRACharles BertyTouristes Routiers06:15:06  +  00:42:48=30,712 
85 FRAPierre JanvierTouristes Routiers06:15:06  +  00:42:48=30,712 

Withdrawls: 5
 
Rider
Team
Reason
7  BELJoseph MoerenhoutBELBelgiumDid not finish
10  ITAGiuseppe MartanoITAItalyDid not finish
14  ITAMario CiprianiITAItalyDid not finish
105  FRAAimable DenhezTouristes RoutiersDid not finish
126  FRARoland FleuretTouristes RoutiersDid not finish

Todays birthdays.

1877  Antoine Perrichon
1878  Auguste Berthault
1911  Théo Herckenrath
1924  Carlo Lafranchi
1931  Armand Di Caro
1937  Jean-Claude Lebaube
1951  Giovanni Battaglin
1961  Pascal Jules
1962  Jean-Claude Leclercq
1976  Janek Tombak
1978  Francisco Pérez
1983  Dries Devenyns




Visits: